Location: Newark
(31.4565°N, 75.7559°E)
Time: 06:46:23
(UTC+00:00)

ISS - Visible Passes

Search period start: 18 January 2020 00:00
Search period end: 28 January 2020 00:00
Orbit: 415 x 421 km, 51.6° (Epoch: 18 January)

Date Brightness Start Highest point End Pass type
(mag) Time Alt. Az. Time Alt. Az. Time Alt. Az.
18 Jan -1.4 12:42:41 10° SE 12:43:47 11° SE 12:44:54 10° ESE visible
18 Jan -2.0 14:16:59 10° WSW 14:19:06 32° W 14:19:06 32° W visible
19 Jan -3.9 13:28:53 10° SW 13:32:14 87° SE 13:33:35 34° NE visible
20 Jan -1.2 14:19:02 10° WNW 14:20:56 16° NW 14:20:56 16° NW visible
21 Jan -2.0 13:30:12 10° W 13:33:06 26° NW 13:35:14 15° NNE visible
22 Jan -2.9 12:41:46 10° WSW 12:45:02 48° NW 12:48:18 10° NNE visible
23 Jan -0.9 13:33:19 10° NW 13:34:10 11° NNW 13:35:02 10° NNW visible
24 Jan -1.3 12:43:41 10° WNW 12:45:57 17° NW 12:48:13 10° N visible
